Wind_Speed
26 25 24 24 23 22 21 21 22 23 24 25 26 26 25 25 26 25 23 22 23 24 25 27 27 27 27 29 30 31 33 33 33 33 31 30 32 34 35 36 36 36
26 26 25 24 24 24 23 23 23 23 24 24 25 27 28 29 28 27 25 24 23 24 24 26 27 27 27 28 29 30 30 32 33 31 30 30 32 33 35 36 37 37
26 26 26 25 25 25 25 24 23 23 25 26 27 28 30 30 29 28 28 26 25 25 24 25 26 27 27 28 29 29 30 30 31 31 31 32 33 33 34 36 36 36
27 27 27 26 26 26 26 25 25 26 26 27 27 27 28 29 29 30 29 28 26 25 25 26 26 27 27 27 28 28 29 30 30 30 31 32 34 34 34 34 34 34
27 27 27 27 27 27 27 26 27 28 28 28 27 26 27 28 29 30 30 29 27 26 25 25 26 27 27 27 28 28 28 29 30 30 30 31 33 34 35 34 33 34
27 27 27 28 28 28 28 28 28 29 29 29 28 27 27 28 30 30 30 29 28 27 26 25 26 27 27 27 28 28 28 29 29 30 30 31 32 33 34 33 32 33
27 27 27 27 28 29 28 28 28 29 29 30 29 28 28 29 30 30 29 30 29 27 27 26 26 26 27 27 28 28 28 29 30 29 29 31 31 32 33 33 33 33
27 27 26 27 28 29 29 28 28 28 29 30 30 29 28 28 29 29 29 29 28 27 26 25 26 26 26 27 28 29 28 28 29 29 29 31 31 31 32 32 32 32
27 26 25 26 27 28 29 28 28 28 29 29 30 30 28 26 27 28 28 28 28 27 26 25 25 25 26 27 28 29 29 29 29 29 29 30 31 31 31 31 31 32
26 25 24 25 26 27 28 27 27 28 27 27 29 29 26 25 25 27 28 28 28 27 25 24 24 24 25 27 28 28 29 30 30 30 30 31 31 30 29 30 31 31
25 24 24 25 26 26 27 27 26 26 26 26 27 27 24 23 24 25 26 27 27 26 24 23 22 23 24 25 27 28 29 29 30 30 30 31 32 32 31 31 31 32
25 24 24 25 26 26 26 27 27 26 26 25 25 24 23 23 23 24 25 26 26 25 23 22 22 22 22 24 26 27 28 29 29 30 30 31 33 34 34 33 33 33
24 23 24 25 25 25 26 27 28 27 25 24 23 23 23 23 24 26 26 26 25 21 19 20 21 21 20 21 23 24 26 28 29 30 30 31 33 35 35 35 35 34
24 24 24 25 25 25 26 27 27 26 25 24 23 23 23 22 23 25 26 27 26 22 17 16 17 18 18 19 21 22 24 26 28 29 30 31 32 33 35 35 35 35
24 25 24 24 24 25 26 26 25 24 25 24 23 23 22 23 23 23 24 26 26 23 20 16 14 15 15 16 18 20 23 25 27 28 29 31 33 33 34 35 35 35
25 25 24 23 23 24 25 24 23 23 25 26 25 24 23 23 23 23 22 25 26 25 23 21 18 16 14 14 15 17 20 23 25 27 29 30 31 33 34 34 35 35
25 25 24 23 22 22 22 22 22 23 25 27 26 25 24 22 22 21 21 23 24 24 25 24 22 20 17 17 16 16 18 19 21 24 26 28 30 31 32 33 33 33
24 24 23 22 22 22 21 21 20 21 24 27 27 26 25 23 23 22 22 21 22 23 25 26 25 23 21 19 19 19 19 20 22 23 24 26 28 30 31 31 33 34
22 21 22 22 22 22 21 20 20 20 22 25 26 27 25 24 25 24 23 22 21 22 24 26 27 27 25 23 21 21 21 21 23 25 25 26 27 29 31 31 31 32
20 21 22 22 21 20 20 20 20 21 22 22 23 24 24 25 25 25 25 23 21 21 23 26 27 28 27 26 24 23 23 22 24 26 27 28 27 27 29 31 32 31
20 22 22 21 20 19 19 20 20 21 22 22 20 21 22 24 25 25 26 25 24 23 24 26 27 27 26 26 26 26 25 25 25 27 28 29 30 29 29 31 33 33
22 23 22 20 19 19 20 21 21 20 22 22 21 21 21 21 22 23 24 25 25 25 24 25 28 28 27 27 27 26 26 27 27 27 28 28 30 31 30 30 31 32
22 21 20 19 19 20 21 21 21 19 19 21 23 23 22 22 23 23 23 23 24 24 23 25 29 30 28 28 27 24 25 27 27 26 27 27 28 29 30 30 30 31
21 20 19 19 19 20 21 21 21 19 18 21 24 24 24 24 24 24 24 23 23 23 22 23 28 30 29 29 28 24 23 26 26 24 25 27 27 27 28 29 31 32
18 18 18 19 19 20 20 21 22 20 19 21 23 23 24 25 24 23 24 24 23 23 22 21 25 28 27 26 26 23 22 24 23 21 23 24 25 25 26 28 30 32
16 17 18 18 19 20 20 20 20 19 20 22 22 21 24 25 24 23 23 23 22 22 22 21 21 24 25 24 22 21 20 21 21 21 22 23 23 23 26 27 27 29
Wind_Direction
349 345 339 332 326 320 314 311 309 307 305 305 304 300 297 294 292 294 296 290 284 280 275 270 264 258 256 252 247 242 238 238 238 239 237 234 236 237 237 239 239 239
347 345 339 331 326 322 318 313 310 307 304 303 301 298 295 293 290 289 293 294 288 282 277 272 266 260 256 253 248 242 238 237 237 238 238 237 239 239 238 239 239 239
345 344 339 332 324 321 318 314 309 304 300 298 298 297 295 293 291 287 287 290 290 286 278 273 268 262 258 254 251 246 241 238 237 237 238 239 241 240 240 241 240 239
341 341 339 333 325 319 315 312 308 304 300 297 296 297 295 292 290 287 286 288 290 288 280 274 268 264 260 256 253 250 245 242 241 240 238 240 242 241 241 241 240 239
336 337 337 334 327 320 314 310 307 306 303 299 296 295 292 290 288 287 286 286 288 289 284 276 271 266 263 258 254 251 248 245 244 243 240 239 240 240 241 241 240 239
334 334 334 333 328 322 315 309 307 306 304 301 297 293 289 287 286 285 285 286 287 289 286 279 272 267 264 260 256 253 250 246 243 241 239 238 239 239 240 240 239 239
331 331 332 331 328 324 316 310 309 307 305 303 299 294 291 288 285 283 284 285 286 286 286 280 272 268 265 260 255 254 252 248 244 241 238 238 238 238 238 239 238 238
329 329 329 328 327 325 318 312 308 308 309 306 301 299 296 291 286 285 285 285 284 283 282 278 271 267 266 261 255 253 251 248 245 242 240 239 238 238 237 238 237 237
325 326 326 326 326 325 320 314 310 309 310 309 306 304 302 298 293 290 287 285 282 279 277 274 269 265 264 262 257 253 251 250 249 245 241 239 238 237 236 235 235 236
322 323 323 323 324 325 322 318 314 311 310 310 309 307 307 306 302 297 292 286 280 276 274 270 265 262 261 262 261 257 253 252 251 248 245 243 242 240 237 235 235 236
319 320 319 320 322 323 323 322 316 311 308 308 308 308 308 309 307 304 299 291 280 273 270 266 262 259 259 260 261 260 257 254 252 250 248 247 246 245 242 240 238 238
318 318 316 317 318 319 321 321 317 312 308 305 305 305 306 306 307 308 307 300 288 276 267 264 263 261 260 261 261 261 261 259 256 253 250 248 249 249 247 244 241 239
317 317 316 315 315 315 317 319 318 315 312 307 304 302 302 303 305 308 310 309 304 293 276 265 262 260 260 261 262 263 263 262 259 256 252 249 248 248 248 246 243 241
317 317 316 315 315 314 316 317 317 316 314 311 307 302 301 300 303 308 309 310 310 309 297 278 265 262 263 263 264 266 265 264 262 258 255 251 249 247 247 246 244 241
318 318 317 317 317 316 317 317 317 317 315 313 308 304 300 299 302 305 306 307 308 308 306 298 283 274 273 272 273 274 273 270 266 263 259 255 251 248 248 247 245 242
319 320 319 318 318 318 318 318 317 316 314 311 309 306 302 300 302 302 301 303 304 304 305 304 297 289 284 281 281 283 285 282 276 269 265 260 255 250 248 248 245 242
321 321 319 317 315 315 315 315 314 314 313 312 310 308 305 303 302 300 297 297 298 299 300 300 297 293 287 284 285 288 292 294 291 284 275 267 261 254 250 248 247 246
323 323 320 318 317 316 315 315 314 314 315 314 312 311 309 307 306 303 300 298 296 295 295 294 294 292 288 284 282 284 289 294 296 296 291 280 269 260 254 251 251 251
326 324 321 319 319 318 316 316 315 315 317 316 314 314 312 309 309 308 305 302 297 294 292 290 290 291 290 288 284 281 283 288 290 291 292 291 282 269 260 255 253 253
326 323 321 318 318 318 315 313 313 316 320 318 315 314 312 309 309 308 306 304 299 295 293 292 291 290 289 289 287 282 281 282 285 286 286 288 287 279 269 263 259 258
326 325 321 317 316 316 314 312 310 315 323 323 317 314 311 306 305 304 304 304 302 299 297 295 293 293 292 290 287 284 283 282 281 283 284 284 284 282 277 271 265 261
328 327 322 318 317 316 315 314 310 313 323 326 320 317 314 309 305 303 302 302 303 301 299 295 294 296 296 293 289 286 284 284 282 283 283 283 282 282 279 274 270 265
329 328 324 321 320 318 317 316 312 312 321 327 322 317 316 314 311 307 303 302 301 300 297 294 293 294 293 293 293 289 284 283 283 283 283 282 282 282 279 275 271 267
329 329 327 325 324 322 319 318 316 313 320 327 324 316 313 314 313 309 305 303 300 299 297 294 291 290 290 289 289 287 283 283 282 280 279 278 277 277 276 273 271 268
329 329 329 328 326 324 322 321 320 319 321 324 323 317 314 313 313 310 306 303 301 300 301 298 292 291 290 289 288 287 286 285 282 277 273 271 271 272 272 269 267 265
331 332 332 331 329 328 326 324 324 326 326 324 322 320 317 314 313 312 308 304 303 304 304 302 297 295 295 297 298 297 293 287 281 271 265 265 266 267 267 266 264 262
Height
783 782 781 779 779 778 777 776 775 774 772 771 770 768 767 766 765 765 764 764 763 763 763 762 762 763 763 763 764 765 766 767 768 769 770 769 771 774 776 778 779 779
782 780 779 778 776 776 775 774 773 772 770 769 768 766 764 763 762 762 762 761 760 760 760 759 759 759 760 760 761 762 762 763 764 765 766 766 768 770 772 774 775 775
781 779 777 776 775 773 772 772 771 770 768 766 765 764 762 760 759 758 758 758 757 756 756 756 756 756 757 757 758 758 758 758 759 761 762 763 765 766 768 769 770 771
779 778 776 774 773 771 770 769 768 767 765 763 762 761 759 758 757 755 754 755 754 753 752 752 752 753 753 753 754 754 754 754 755 757 758 759 761 762 764 765 766 767
778 777 774 773 771 769 768 766 765 764 762 760 759 758 756 755 753 752 751 751 750 750 749 748 748 749 749 750 750 750 750 751 751 752 753 754 756 758 759 761 762 762
777 775 773 771 769 767 765 764 762 761 759 758 756 755 753 752 750 749 748 747 747 746 745 745 744 744 745 746 746 746 747 747 747 748 749 750 752 753 755 756 757 758
775 773 771 769 767 765 763 761 760 758 757 755 753 752 751 748 747 745 745 744 743 743 742 741 741 741 741 742 742 743 743 744 744 745 746 747 748 749 750 752 753 753
774 772 769 767 765 763 761 759 757 756 754 753 751 749 747 745 744 742 741 741 740 739 738 738 737 737 737 738 739 739 740 740 741 741 742 742 743 744 745 747 748 748
772 770 768 766 764 761 758 756 755 754 752 750 748 746 744 742 741 740 738 737 736 735 735 734 734 734 734 734 734 735 735 736 737 737 738 738 738 739 740 742 743 743
770 768 766 764 762 760 757 755 753 751 750 748 746 744 742 740 738 737 735 734 732 731 730 730 730 730 730 730 730 731 731 732 732 733 734 734 734 735 736 737 738 738
768 767 765 762 760 758 755 753 751 749 748 746 744 742 740 738 736 735 733 730 729 727 726 726 726 726 726 726 727 727 727 728 728 728 729 729 730 730 731 732 733 733
767 765 763 761 759 756 754 751 749 747 745 744 742 740 738 736 734 732 730 728 726 724 722 721 721 722 722 722 723 723 723 724 724 724 725 725 725 726 727 727 728 729
765 763 761 759 757 754 752 750 747 745 743 741 740 738 736 734 732 729 727 725 723 720 718 718 718 718 718 718 719 719 720 720 719 720 720 721 721 721 721 722 723 724
763 762 759 757 755 753 750 748 745 743 741 739 737 736 734 732 729 727 725 723 721 718 715 714 714 714 714 714 715 716 716 716 716 716 716 716 716 716 717 717 718 719
761 759 757 755 753 751 748 746 743 741 739 737 735 733 731 729 727 725 723 721 719 716 714 713 712 711 711 711 712 712 712 712 712 712 712 712 712 712 712 712 713 714
759 757 755 753 751 748 746 743 741 739 737 734 732 730 729 726 724 722 721 719 717 715 713 711 710 710 709 709 709 709 709 709 709 708 708 708 708 708 708 708 708 708
757 755 753 751 748 746 744 741 739 737 734 732 729 727 725 723 721 719 718 717 715 712 710 709 708 707 707 707 707 706 706 706 705 705 705 704 704 704 703 703 703 704
755 753 750 748 746 744 742 740 738 735 733 730 726 724 722 720 718 717 715 714 712 709 708 707 705 705 704 704 704 704 703 703 702 702 701 701 700 699 699 699 699 699
753 751 749 747 744 742 740 738 736 734 731 728 725 722 720 718 716 714 712 711 709 707 705 703 702 701 701 701 700 700 700 700 699 699 698 697 697 696 695 695 695 695
752 750 747 745 742 740 738 736 734 731 729 726 723 720 718 715 713 711 710 708 706 705 702 700 698 697 697 697 697 696 697 696 696 695 695 694 693 692 692 691 691 692
751 748 745 743 741 738 736 734 731 729 727 724 722 719 717 714 711 709 707 705 703 702 699 697 695 694 694 693 693 693 693 692 692 691 691 690 690 689 688 688 688 688
749 747 744 742 739 737 735 732 730 727 725 723 720 718 716 713 710 708 704 701 700 698 697 694 691 691 691 690 689 689 689 688 688 687 687 686 685 685 685 684 684 684
748 746 743 741 739 736 734 731 729 726 724 722 719 716 714 712 709 706 703 699 697 695 694 691 688 687 687 686 686 686 685 684 683 683 682 682 681 681 681 680 680 680
748 745 743 740 738 736 733 730 728 726 723 721 718 715 712 710 707 704 700 697 694 691 690 688 684 682 683 682 682 682 682 681 680 679 678 677 676 676 676 675 675 675
747 745 742 740 738 735 733 730 727 725 723 720 718 714 711 708 706 702 697 694 692 688 687 685 681 678 677 677 677 677 678 677 676 675 673 672 671 671 671 670 670 669
747 745 742 740 737 735 732 730 727 725 722 719 716 713 710 706 703 700 696 691 689 686 683 682 679 675 673 673 673 673 673 673 672 671 669 668 668 667 666 665 664 664